C/2007 N3 ( Lulin )

Japanese version
Home page
Updated on September 3, 2011

---------------------------------------------------------------------

* Profile

Discovery Date July 11, 2007
Magnitude 18.9 mag
Discoverer Quanzhi Ye (Guangzhou, China), Chi Sheng Lin (Lulin Sky Survey)

* Pictures

* Orbital Elements

Epoch 2009 Jan. 9.0 TT = JDT 2454840.5
T 2009 Jan. 10.64007 TT                                 MPC
q   1.2122575            (2000.0)            P               Q
z  +0.0000162      Peri.  136.86208     -0.92920778     -0.36941174
 +/-0.000000       Node   338.53479     -0.34631428     +0.86061128
e   0.9999804      Incl.  178.37359     -0.12899351     +0.35054699
From 3598 observations 2007 July 11-2011 Jan. 1, mean residual 0".5.

* Finding Charts

* Magnitudes Graph

        m1 = 5.5 + 5 log d + 11.0 log r  [ ,0]  (             - 2009 Jan. 10)
        m1 = 5.5 + 5 log d + 12.0 log r  [0, ]  (2009 Jan. 10 -             )

---------------------------------------------------------------------

The orbital elements are published on M.P.E.C. 2011-A08.
The charts are made with StellaNavigator Ver.8 (AstroArts).
The magnitudes graphs are made with Comet for Windows.

---------------------------------------------------------------------

Copyright(C) Seiichi Yoshida (comet@aerith.net). All rights reserved.